RYR4434 LOWW-LGSA

Flight info

Callsign RYR4434
Flight time N/A
Altitude 37000
Route ARSIN DCT NALOX DCT OSDUK DCT DOBAR DCT PINDO DCT PIKOS DCT LUSES DCT ATV UP169 MANOK L612 RUSOS
Aircraft A320/M-SDE3FGHIRWY/LB1

Departure

Time 2026-04-21 08:16
Airport Vienna International Airport (LOWW)

Arrival

Time N/A
Airport Chania International Airport (LGSA)
Time Latitude Longitude Altitude Speed Heading
2026-04-21 07:41 48.11984 16.55594 616 ft 0 kts 100°
2026-04-21 07:45 48.11984 16.55592 617 ft 0 kts 101°
2026-04-21 08:07 48.11989 16.55562 614 ft 4 kts 109°
2026-04-21 08:07 48.12001 16.55526 615 ft 4 kts 136°
2026-04-21 08:08 48.12019 16.55513 620 ft 2 kts 204°
2026-04-21 08:08 48.12021 16.55514 618 ft 0 kts 206°
2026-04-21 08:11 48.12016 16.55510 621 ft 4 kts 206°
2026-04-21 08:11 48.11991 16.55493 610 ft 3 kts 206°
2026-04-21 08:11 48.11975 16.55481 609 ft 2 kts 206°
2026-04-21 08:11 48.11930 16.55449 619 ft 11 kts 205°
2026-04-21 08:12 48.11858 16.55428 609 ft 10 kts 188°
2026-04-21 08:12 48.11799 16.55464 609 ft 12 kts 122°
2026-04-21 08:12 48.11759 16.55591 617 ft 14 kts 116°
2026-04-21 08:12 48.11718 16.55714 613 ft 13 kts 116°
2026-04-21 08:13 48.11664 16.55880 621 ft 18 kts 116°
2026-04-21 08:13 48.11610 16.56044 615 ft 17 kts 116°
2026-04-21 08:13 48.11562 16.56189 612 ft 15 kts 116°
2026-04-21 08:13 48.11507 16.56360 618 ft 18 kts 115°
2026-04-21 08:14 48.11456 16.56519 617 ft 16 kts 116°
2026-04-21 08:14 48.11408 16.56666 615 ft 15 kts 116°
2026-04-21 08:14 48.11365 16.56796 615 ft 13 kts 116°
2026-04-21 08:14 48.11321 16.56928 613 ft 19 kts 116°
2026-04-21 08:15 48.11261 16.57117 617 ft 19 kts 115°
2026-04-21 08:15 48.11184 16.57226 609 ft 14 kts 186°
2026-04-21 08:15 48.11090 16.57172 614 ft 15 kts 205°
2026-04-21 08:15 48.11074 16.57041 617 ft 19 kts 295°
2026-04-21 08:16 48.11213 16.56620 609 ft 79 kts 296°
2026-04-21 08:16 48.11545 16.55602 621 ft 136 kts 296°
2026-04-21 08:16 48.11987 16.54186 967 ft 151 kts 295°
2026-04-21 08:16 48.12070 16.52632 1628 ft 160 kts 251°
2026-04-21 08:17 48.11275 16.51459 2204 ft 170 kts 205°
2026-04-21 08:17 48.10125 16.50904 2708 ft 175 kts 201°
2026-04-21 08:17 48.08977 16.50316 3268 ft 175 kts 204°
2026-04-21 08:17 48.07822 16.49702 3816 ft 178 kts 203°
2026-04-21 08:18 48.06599 16.49044 4087 ft 198 kts 203°
2026-04-21 08:18 48.05275 16.48173 4324 ft 218 kts 216°
2026-04-21 08:18 48.03938 16.46849 4588 ft 242 kts 217°
2026-04-21 08:18 48.02463 16.45396 4965 ft 265 kts 216°
2026-04-21 08:19 48.00884 16.43860 5670 ft 275 kts 216°
2026-04-21 08:19 47.99158 16.42587 6525 ft 283 kts 198°
2026-04-21 08:19 47.97189 16.42236 7307 ft 289 kts 176°
2026-04-21 08:19 47.95200 16.42807 8132 ft 293 kts 166°
2026-04-21 08:20 47.93209 16.43525 8961 ft 296 kts 166°
2026-04-21 08:20 47.91201 16.44246 9784 ft 299 kts 166°
2026-04-21 08:20 47.89149 16.44979 10422 ft 310 kts 166°
2026-04-21 08:20 47.86972 16.45753 10645 ft 333 kts 166°
2026-04-21 08:21 47.84670 16.46568 11126 ft 345 kts 167°
2026-04-21 08:21 47.82320 16.47395 11831 ft 349 kts 167°
2026-04-21 08:21 47.79950 16.48225 12552 ft 352 kts 167°
2026-04-21 08:21 47.77545 16.49066 13265 ft 356 kts 167°
2026-04-21 08:22 47.75128 16.49915 13989 ft 360 kts 167°
2026-04-21 08:22 47.72677 16.50775 14626 ft 363 kts 167°
2026-04-21 08:22 47.70215 16.51637 15248 ft 366 kts 167°
2026-04-21 08:22 47.67736 16.52591 15850 ft 370 kts 161°
2026-04-21 08:23 47.65385 16.54201 16436 ft 374 kts 148°
2026-04-21 08:23 47.63311 16.56536 17037 ft 376 kts 134°
2026-04-21 08:23 47.61621 16.59491 17643 ft 377 kts 121°
2026-04-21 08:23 47.60393 16.62919 18252 ft 377 kts 111°
2026-04-21 08:24 47.59350 16.66502 18803 ft 380 kts 111°
2026-04-21 08:24 47.58278 16.70107 19301 ft 385 kts 114°
2026-04-21 08:24 47.56694 16.73318 19788 ft 392 kts 137°
2026-04-21 08:24 47.54426 16.75570 20279 ft 396 kts 155°
2026-04-21 08:25 47.51797 16.76820 20791 ft 399 kts 171°